Tracking 25620 objects as of 18-May-2022
HD Live streaming from Space Station
objects crossing your sky now

PEGASUS R/B

Track PEGASUS R/B now!
10-day predictions


NORAD ID: 25506
Int'l Code: 1998-060B
Perigee: 728.3 km
Apogee: 761.6 km
Inclination: 25.0 °
Period: 99.6 minutes
Semi major axis: 7115 km
RCS: 1.6048 m2 (large)
Launch date: October 23, 1998
Source: United States (US)
Launch site: Pegasus launched from Eastern Range Air Space (ERAS)

Note: This is a ROCKET BODY
aabbcc
Your satellite tracking list
Your tracking list is empty




NASA's NSSDC Master Catalog

Two Line Element Set (TLE):
1 25506U 98060B   22137.61678082  .00000481  00000-0  81693-4 0  9998
2 25506  24.9964  97.7950 0023382 128.7449  32.0780 14.46283852245963
Source of the keplerian elements: AFSPC